Location: Unspecified
(17.6330°N, 0.0000°E)
Time: 15:03:39
(UTC+00:00)

Tiros 1 despin weight - Pass Details

Date: 12 August 2020
Orbit: 593 x 642 km, 48.2° (Epoch: 23 September)

Event Time Altitude Azimuth Distance (km) Brightness Sun altitude
Exits shadow 03:49:04 58° 124° (ESE) 729 ? -25.9°
Drops below altitude 10° 03:53:25 10° 52° (NE) 1,976 ? -25.0°
Sets 03:55:44 0° 48° (NE) 2,874 ? -24.5°
